Terug naar catalogus

IRIDIUM 167

ActiefCommunicatiePO
NORAD 43931·PAYLOAD·🇺🇸 United States

Gelanceerd Jan 11, 2019 vanaf Vandenberg Space Force Base

Loading…

Volgende Passages (komende 24 uur)

TLE

VersSource: CelesTrak SupGP

Epoch: Sep 14, 2026, 20:37 UTC

1 43931C 19002K   26257.85937500 -.00001060  00000+0 -37903-3 0  2571
2 43931  86.3975 316.1312 0002095  90.8156 176.8306 14.34217825    11

Volg IRIDIUM 167 in realtime met AllMySat

Download on the App Store